PST,Max TemperatureF,Mean TemperatureF,Min TemperatureF,Max Dew PointF,MeanDew PointF,Min DewpointF,Max Humidity, Mean Humidity, Min Humidity, Max Sea Level PressureIn, Mean Sea Level PressureIn, Min Sea Level PressureIn, Max VisibilityMiles, Mean VisibilityMiles, Min VisibilityMiles, Max Wind SpeedMPH, Mean Wind SpeedMPH, Max Gust SpeedMPH,PrecipitationIn, CloudCover, Events, WindDirDegrees
2014-1-1,57,43,28,24,22,20,75,54,27,30.40,30.35,30.28,10,10,6,9,3,16,0.00,0,,21
2014-1-2,56,43,29,26,24,22,75,54,30,30.37,30.28,30.18,10,9,5,9,4,16,0.00,0,,35
2014-1-3,60,46,32,29,27,24,70,53,31,30.20,30.14,30.06,10,10,6,10,5,18,0.00,0,,342
2014-1-4,49,37,25,29,18,8,85,52,26,30.41,30.30,30.10,10,10,9,9,4,15,0.00,0,,12
2014-1-5,52,36,19,11,9,6,57,40,19,30.50,30.43,30.37,10,8,4,10,3,14,0.00,0,,6
2014-1-6,48,37,26,32,17,10,76,46,23,30.44,30.35,30.26,10,8,5,7,2,13,T,3,,32
2014-1-7,53,39,25,28,23,20,78,58,29,30.27,30.22,30.16,10,8,3,7,1,12,0.00,2,,73
2014-1-8,49,37,25,32,27,21,85,68,50,30.27,30.20,30.15,10,10,6,9,2,19,0.00,3,,96
2014-1-9,45,36,27,34,29,24,92,78,58,30.27,30.23,30.15,10,8,3,6,0,8,0.01,4,Rain,175
2014-1-10,49,39,28,36,30,25,92,79,56,30.37,30.28,30.19,10,7,2,6,0,14,0.00,3,,70
2014-1-11,49,38,26,38,31,23,92,80,49,30.30,30.12,30.00,10,8,0,9,3,22,0.14,5,Fog-Rain,98
2014-1-12,41,34,26,30,26,21,89,76,59,30.63,30.48,30.27,10,9,6,9,2,18,0.00,3,,358
2014-1-13,45,37,28,34,29,25,92,85,70,30.75,30.66,30.53,10,10,6,12,4,18,0.00,2,,316
2014-1-14,39,30,20,28,24,17,92,81,64,30.82,30.73,30.61,10,10,7,12,6,23,0.00,2,,335
2014-1-15,49,35,21,26,21,15,81,65,45,30.72,30.65,30.57,10,10,6,12,6,24,0.00,0,,350
2014-1-16,51,37,23,23,17,12,69,54,28,30.59,30.52,30.42,10,9,5,12,4,20,0.00,0,,32
2014-1-17,57,41,25,23,19,14,63,52,24,30.45,30.38,30.30,10,9,5,9,4,15,0.00,0,,44
2014-1-18,59,43,26,32,21,16,68,54,24,30.38,30.31,30.25,10,9,5,10,3,15,0.00,0,,12
2014-1-19,62,44,26,26,20,17,68,55,19,30.32,30.28,30.21,10,8,4,8,1,12,0.00,0,,45
2014-1-20,61,43,24,26,18,13,63,51,28,30.43,30.37,30.29,10,8,4,8,3,14,0.00,0,,21
2014-1-21,57,40,23,23,16,12,60,46,23,30.48,30.41,30.34,10,9,5,10,3,18,0.00,0,,38
2014-1-22,56,43,29,22,18,15,56,43,22,30.36,30.26,30.17,10,9,6,13,5,20,0.00,0,,37
2014-1-23,60,43,25,22,18,15,68,39,19,30.29,30.22,30.14,10,10,8,12,3,32,0.00,0,,359
2014-1-24,63,49,35,21,18,17,44,30,19,30.42,30.32,30.27,10,10,4,13,3,21,0.00,0,,102
2014-1-25,59,43,27,20,18,16,58,42,23,30.44,30.37,30.30,10,10,6,10,3,19,0.00,0,,21
2014-1-26,63,46,29,22,19,17,63,44,20,30.30,30.22,30.14,10,9,5,9,3,15,0.00,0,,37
2014-1-27,53,42,31,35,23,19,73,47,29,30.27,30.22,30.15,10,10,8,8,3,12,T,4,Rain,48
2014-1-28,57,49,41,38,35,31,73,61,47,30.31,30.25,30.19,10,10,6,7,2,12,T,8,,80
2014-1-29,50,44,37,42,38,31,89,80,50,30.19,30.08,30.02,10,8,5,10,4,18,0.06,6,Rain,101
2014-1-30,45,39,33,31,28,23,82,65,49,30.01,29.96,29.91,10,10,10,14,5,21,0.00,1,,327
2014-1-31,43,35,27,24,21,18,75,60,36,30.18,30.11,30.01,10,10,10,15,6,24,0.00,0,,314